�������l�o���
Date,Time,MP-1(��Sv/h),MP-2(��Sv/h),MP-3(��Sv/h),MP-4(��Sv/h),MP-5(��Sv/h),MP-6(��Sv/h),MP-7(��Sv/h),����,����(m/s),���J
2016/08/22,00:00,0.400,0.236,0.412,0.377,0.358,0.193,0.166,��쐼,6.7,��
2016/08/22,00:10,0.397,0.235,0.413,0.376,0.363,0.193,0.164,��,6.1,�L
2016/08/22,00:20,0.396,0.238,0.420,0.377,0.366,0.195,0.164,��쐼,7.0,��
2016/08/22,00:30,0.399,0.238,0.416,0.383,0.364,0.195,0.163,��쐼,7.1,��
2016/08/22,00:40,0.401,0.237,0.412,0.382,0.360,0.194,0.166,��쐼,7.5,��
2016/08/22,00:50,0.399,0.235,0.411,0.380,0.359,0.194,0.165,��쐼,8.0,��
2016/08/22,01:00,0.395,0.237,0.413,0.376,0.366,0.193,0.164,��,6.8,��
2016/08/22,01:10,0.395,0.237,0.419,0.377,0.367,0.194,0.164,��쐼,8.1,��
2016/08/22,01:20,0.400,0.236,0.417,0.383,0.365,0.193,0.165,��쐼,7.6,��
2016/08/22,01:30,0.401,0.236,0.415,0.382,0.361,0.195,0.166,��쐼,7.6,��
2016/08/22,01:40,0.398,0.238,0.411,0.380,0.360,0.193,0.164,��쐼,6.8,��
2016/08/22,01:50,0.397,0.237,0.415,0.376,0.367,0.194,0.164,��쐼,6.9,��
2016/08/22,02:00,0.402,0.236,0.418,0.380,0.366,0.194,0.164,��쐼,7.3,��
2016/08/22,02:10,0.401,0.235,0.416,0.383,0.362,0.195,0.165,��쐼,7.4,��
2016/08/22,02:20,0.400,0.237,0.413,0.381,0.359,0.194,0.164,��쐼,7.1,��
2016/08/22,02:30,0.396,0.237,0.412,0.378,0.365,0.193,0.163,��쐼,7.7,��
2016/08/22,02:40,0.400,0.235,0.416,0.377,0.367,0.194,0.166,��쐼,7.0,��
2016/08/22,02:50,0.402,0.235,0.417,0.382,0.364,0.194,0.166,��쐼,7.1,��
2016/08/22,03:00,0.399,0.237,0.415,0.382,0.361,0.195,0.164,��쐼,6.7,�L
2016/08/22,03:10,0.395,0.237,0.411,0.378,0.361,0.193,0.163,��,6.4,�L
2016/08/22,03:20,0.399,0.234,0.409,0.376,0.363,0.193,0.165,��,5.6,�L
2016/08/22,03:30,0.400,0.235,0.415,0.380,0.363,0.194,0.164,��쐼,5.1,��
2016/08/22,03:40,0.398,0.237,0.417,0.380,0.359,0.194,0.163,��쐼,5.7,��
2016/08/22,03:50,0.396,0.236,0.415,0.379,0.360,0.193,0.164,��,6.4,�L
2016/08/22,04:00,0.397,0.235,0.410,0.375,0.364,0.193,0.164,��,5.8,�L
2016/08/22,04:10,0.399,0.236,0.412,0.376,0.362,0.194,0.163,��,5.0,�L
2016/08/22,04:20,0.398,0.237,0.416,0.379,0.359,0.193,0.163,��,5.3,��
2016/08/22,04:30,0.394,0.234,0.413,0.377,0.358,0.192,0.163,��,5.9,��
2016/08/22,04:40,0.398,0.234,0.408,0.374,0.362,0.192,0.164,��,6.5,�L
2016/08/22,04:50,0.401,0.235,0.410,0.375,0.362,0.193,0.163,��,7.1,�L
2016/08/22,05:00,0.399,0.236,0.414,0.379,0.359,0.194,0.162,��쐼,6.7,��
2016/08/22,05:10,0.394,0.236,0.412,0.378,0.357,0.193,0.164,��쐼,7.2,��
2016/08/22,05:20,0.394,0.234,0.411,0.375,0.361,0.193,0.163,��쐼,6.9,��
2016/08/22,05:30,0.399,0.235,0.409,0.374,0.362,0.193,0.163,��쐼,7.3,��
2016/08/22,05:40,0.397,0.235,0.414,0.379,0.359,0.193,0.163,��쐼,6.9,��
2016/08/22,05:50,0.395,0.234,0.416,0.377,0.357,0.193,0.163,��쐼,7.2,��
2016/08/22,06:00,0.395,0.233,0.410,0.375,0.363,0.192,0.163,��쐼,7.9,��
2016/08/22,06:10,0.399,0.236,0.410,0.374,0.362,0.192,0.162,��쐼,8.2,�L
2016/08/22,06:20,0.398,0.235,0.411,0.379,0.360,0.193,0.162,��쐼,8.1,��
2016/08/22,06:30,0.396,0.235,0.415,0.378,0.358,0.192,0.164,��쐼,7.0,��
2016/08/22,06:40,0.394,0.233,0.413,0.374,0.359,0.191,0.165,��쐼,7.0,��
2016/08/22,06:50,0.399,0.236,0.409,0.374,0.362,0.193,0.162,��,6.4,��
2016/08/22,07:00,0.399,0.238,0.408,0.374,0.363,0.194,0.162,��,6.2,��
2016/08/22,07:10,0.398,0.236,0.407,0.379,0.360,0.193,0.162,��,6.8,��
2016/08/22,07:20,0.395,0.235,0.408,0.378,0.358,0.192,0.163,��쐼,7.3,��
2016/08/22,07:30,0.393,0.235,0.408,0.378,0.358,0.192,0.161,��쐼,5.7,��
2016/08/22,07:40,0.393,0.234,0.411,0.375,0.359,0.193,0.163,��쐼,7.3,��
2016/08/22,07:50,0.400,0.235,0.417,0.374,0.357,0.193,0.163,��쐼,6.1,��
2016/08/22,08:00,0.400,0.236,0.414,0.374,0.362,0.193,0.163,��쐼,5.3,��
2016/08/22,08:10,0.398,0.234,0.415,0.374,0.364,0.194,0.162,��쐼,5.9,��
2016/08/22,08:20,0.396,0.234,0.411,0.375,0.362,0.193,0.163,��쐼,5.5,��
2016/08/22,08:30,0.394,0.236,0.410,0.373,0.360,0.193,0.162,��쐼,5.1,��
2016/08/22,08:40,0.394,0.235,0.408,0.374,0.361,0.194,0.163,��쐼,4.2,��
2016/08/22,08:50,0.394,0.235,0.410,0.374,0.359,0.193,0.162,��쐼,6.1,��
2016/08/22,09:00,0.395,0.235,0.410,0.375,0.361,0.195,0.162,��쐼,4.9,��
2016/08/22,09:10,0.395,0.234,0.410,0.375,0.361,0.194,0.163,��쐼,4.7,��
2016/08/22,09:20,0.395,0.236,0.411,0.375,0.360,0.194,0.163,��,6.1,��
2016/08/22,09:30,0.396,0.236,0.409,0.376,0.359,0.194,0.164,��,6.9,��
2016/08/22,09:40,0.396,0.237,0.411,0.376,0.361,0.196,0.164,��,7.7,��
2016/08/22,09:50,0.397,0.236,0.411,0.375,0.360,0.194,0.164,��,6.5,��
2016/08/22,10:00,0.397,0.233,0.410,0.377,0.361,0.194,0.164,��,6.8,��
2016/08/22,10:10,0.396,0.234,0.412,0.378,0.360,0.194,0.163,��,6.2,��
2016/08/22,10:20,0.397,0.236,0.411,0.379,0.361,0.194,0.164,��쓌,5.2,��
2016/08/22,10:30,0.396,0.235,0.413,0.377,0.362,0.195,0.164,��,6.6,��
2016/08/22,10:40,0.397,0.234,0.412,0.377,0.361,0.194,0.164,��쓌,3.3,��
2016/08/22,10:50,0.397,0.235,0.413,0.377,0.361,0.194,0.163,��쓌,3.9,��
2016/08/22,11:00,0.396,0.233,0.411,0.374,0.360,0.194,0.163,��쓌,3.2,��
2016/08/22,11:10,0.395,0.233,0.413,0.375,0.360,0.195,0.163,��,4.0,��
2016/08/22,11:20,0.397,0.233,0.419,0.376,0.358,0.195,0.164,��,3.3,��
2016/08/22,11:30,0.395,0.233,0.418,0.378,0.361,0.193,0.163,��쓌,2.8,��
2016/08/22,11:40,0.397,0.233,0.415,0.378,0.361,0.194,0.164,�쓌,2.8,��
2016/08/22,11:50,0.396,0.232,0.413,0.377,0.362,0.194,0.165,��쓌,3.5,��
2016/08/22,12:00,0.397,0.236,0.413,0.377,0.361,0.193,0.164,�쓌,2.7,��
2016/08/22,12:10,0.396,0.235,0.412,0.377,0.361,0.194,0.163,�쓌,3.5,��
2016/08/22,12:20,0.397,0.236,0.412,0.378,0.362,0.194,0.163,��쓌,5.2,��
2016/08/22,12:30,0.402,0.236,0.412,0.378,0.361,0.193,0.163,��쓌,3.6,��
2016/08/22,12:40,0.404,0.236,0.411,0.383,0.361,0.194,0.164,�쓌,1.9,��
2016/08/22,12:50,0.401,0.236,0.410,0.383,0.360,0.196,0.165,�쓌,2.8,��
2016/08/22,13:00,0.397,0.234,0.414,0.380,0.360,0.195,0.166,�쓌,3.1,�L
2016/08/22,13:10,0.396,0.236,0.418,0.379,0.363,0.195,0.164,�쓌,3.6,��
2016/08/22,13:20,0.396,0.235,0.416,0.378,0.366,0.194,0.163,�쓌,4.2,�L
2016/08/22,13:30,0.396,0.238,0.414,0.376,0.364,0.194,0.164,�쓌,4.3,�L
2016/08/22,13:40,0.402,0.239,0.411,0.378,0.361,0.194,0.164,�쓌,5.5,�L
2016/08/22,13:50,0.401,0.236,0.411,0.383,0.361,0.195,0.165,�쓌,5.0,�L
2016/08/22,14:00,0.398,0.235,0.411,0.379,0.358,0.195,0.165,���쓌,5.8,�L
2016/08/22,14:10,0.396,0.234,0.416,0.377,0.364,0.195,0.164,���쓌,6.3,�L
2016/08/22,14:20,0.397,0.238,0.415,0.375,0.366,0.194,0.163,�쓌,7.1,�L
2016/08/22,14:30,0.403,0.237,0.413,0.379,0.362,0.193,0.166,���쓌,6.8,�L
2016/08/22,14:40,0.400,0.235,0.408,0.380,0.359,0.195,0.164,���쓌,6.7,�L
2016/08/22,14:50,0.395,0.235,0.412,0.377,0.359,0.194,0.163,��,8.2,�L
2016/08/22,15:00,0.395,0.235,0.416,0.374,0.363,0.194,0.164,��,9.3,�L
2016/08/22,15:10,0.400,0.236,0.415,0.376,0.363,0.192,0.165,��,9.5,�L
2016/08/22,15:20,0.400,0.237,0.409,0.379,0.359,0.193,0.165,��,9.9,�L
2016/08/22,15:30,0.396,0.235,0.408,0.377,0.357,0.193,0.163,��,10.6,�L
2016/08/22,15:40,0.394,0.236,0.415,0.374,0.362,0.194,0.164,��,12.3,�L
2016/08/22,15:50,0.397,0.236,0.412,0.373,0.363,0.192,0.163,��,12.5,�L
2016/08/22,16:00,0.396,0.234,0.407,0.376,0.357,0.192,0.163,��,13.6,�L
2016/08/22,16:10,0.390,0.232,0.402,0.370,0.354,0.191,0.160,��,13.3,�L
2016/08/22,16:20,0.389,0.234,0.405,0.367,0.358,0.190,0.160,��,14.9,�L
2016/08/22,16:30,0.387,0.231,0.400,0.362,0.354,0.187,0.160,��,16.1,�L
2016/08/22,16:40,0.381,0.229,0.393,0.360,0.352,0.188,0.158,���쓌,16.6,�L
2016/08/22,16:50,0.378,0.230,0.394,0.357,0.354,0.186,0.158,���쓌,16.2,�L
2016/08/22,17:00,0.380,0.232,0.398,0.358,0.358,0.187,0.160,���쓌,16.6,�L
2016/08/22,17:10,0.377,0.227,0.390,0.349,0.352,0.184,0.158,�쓌,14.6,�L
2016/08/22,17:20,0.377,0.230,0.392,0.358,0.354,0.186,0.159,��쓌,12.6,�L
2016/08/22,17:30,0.369,0.230,0.382,0.344,0.348,0.182,0.157,�쐼,15.2,�L
2016/08/22,17:40,0.369,0.229,0.374,0.338,0.347,0.179,0.157,��쓌,12.3,�L
2016/08/22,17:50,0.376,0.232,0.383,0.356,0.352,0.185,0.159,��쓌,15.7,�L
2016/08/22,18:00,0.375,0.235,0.385,0.359,0.353,0.187,0.161,��쓌,17.1,�L
2016/08/22,18:10,0.378,0.236,0.392,0.359,0.357,0.187,0.164,�쓌,18.2,�L
2016/08/22,18:20,0.381,0.235,0.391,0.357,0.357,0.186,0.164,���쓌,27.4,�L
2016/08/22,18:30,0.379,0.234,0.388,0.362,0.357,0.187,0.166,��,19.3,�L
2016/08/22,18:40,0.380,0.238,0.391,0.364,0.357,0.189,0.165,��쓌,19.8,�L
2016/08/22,18:50,0.386,0.237,0.400,0.366,0.364,0.188,0.168,��,18.8,�L
2016/08/22,19:00,0.389,0.238,0.401,0.372,0.363,0.189,0.168,��,20.7,�L
2016/08/22,19:10,0.385,0.240,0.399,0.370,0.361,0.190,0.167,��,22.4,�L
2016/08/22,19:20,0.387,0.239,0.405,0.370,0.365,0.189,0.167,��,22.2,�L
2016/08/22,19:30,0.389,0.237,0.402,0.374,0.362,0.188,0.165,��,22.3,�L
2016/08/22,19:40,0.387,0.239,0.400,0.373,0.361,0.191,0.168,��,21.8,�L
2016/08/22,19:50,0.389,0.238,0.405,0.370,0.364,0.190,0.167,��쓌,24.2,�L
2016/08/22,20:00,0.390,0.236,0.404,0.374,0.362,0.189,0.165,��,27.7,�L
2016/08/22,20:10,0.385,0.237,0.400,0.371,0.358,0.189,0.165,��,25.5,�L
2016/08/22,20:20,0.384,0.236,0.404,0.367,0.360,0.188,0.164,��,27.8,�L
2016/08/22,20:30,0.387,0.235,0.400,0.369,0.360,0.189,0.163,��,30.0,�L
2016/08/22,20:40,0.383,0.236,0.396,0.365,0.356,0.190,0.165,��쐼,24.2,�L
2016/08/22,20:50,0.383,0.236,0.400,0.364,0.360,0.190,0.166,��쐼,21.0,�L
2016/08/22,21:00,0.387,0.236,0.400,0.367,0.359,0.191,0.165,��쐼,17.3,�L
2016/08/22,21:10,0.385,0.239,0.397,0.366,0.358,0.192,0.167,��,18.1,�L
2016/08/22,21:20,0.386,0.237,0.403,0.367,0.363,0.191,0.166,��,17.8,�L
2016/08/22,21:30,0.388,0.238,0.401,0.367,0.360,0.192,0.165,��쐼,17.0,�L
2016/08/22,21:40,0.387,0.239,0.401,0.367,0.360,0.192,0.166,��쐼,16.6,�L
2016/08/22,21:50,0.388,0.236,0.405,0.368,0.362,0.191,0.166,��쐼,17.4,�L
2016/08/22,22:00,0.388,0.237,0.402,0.370,0.360,0.191,0.165,��쐼,18.0,�L
2016/08/22,22:10,0.385,0.237,0.401,0.366,0.359,0.192,0.165,��쐼,15.2,�L
2016/08/22,22:20,0.388,0.235,0.405,0.371,0.361,0.191,0.163,��쐼,15.6,�L
2016/08/22,22:30,0.387,0.236,0.400,0.369,0.358,0.190,0.165,��쐼,14.9,�L
2016/08/22,22:40,0.384,0.235,0.401,0.368,0.361,0.189,0.163,��쐼,14.0,�L
2016/08/22,22:50,0.386,0.233,0.403,0.371,0.360,0.189,0.162,��쐼,13.5,��
2016/08/22,23:00,0.387,0.234,0.399,0.369,0.356,0.188,0.162,��쐼,9.4,��
2016/08/22,23:10,0.382,0.235,0.402,0.366,0.359,0.187,0.160,��쐼,8.1,��
2016/08/22,23:20,0.386,0.232,0.404,0.370,0.359,0.188,0.159,��쐼,8.4,�L
2016/08/22,23:30,0.385,0.231,0.398,0.367,0.354,0.187,0.159,��쐼,7.5,�L
2016/08/22,23:40,0.381,0.231,0.403,0.365,0.359,0.187,0.160,��쐼,7.9,�L
2016/08/22,23:50,0.387,0.229,0.403,0.370,0.358,0.185,0.160,��쐼,8.4,�L
